sat.trackr.live / text

‹ back to catalog

STARLINK-37013

NORAD 68162 · 2026-049W

PAYLOAD ACTIVE UNKNOWN

§ Identity

Operator
Country
US
Launch date
2026-03-13
Launch site
AFWTR
Launch vehicle
Mass (kg)
RCS (m²)

Purposes: comms

External: N2YO · Heavens-Above · Gunter

§ Orbital elements

Epoch: 2026-05-25T00:27:09.822816Z

Period
93.91 min
Inclination
97.2862°
Eccentricity
0.0000501
Mean motion
15.33443038 rev/d
Perigee alt
465.2 km
Apogee alt
465.9 km
Semi-major
6,843.7 km
B*
2.6938e-4
RAAN
166.6586°
Arg perigee
331.5722°
Mean anomaly
28.5494°
Rev number
1,134

§ Raw data

STARLINK-370131 68162U 26049W   26145.01886369  .00008631  00000+0  26938-3 0  99912 68162  97.2862 166.6586 0000501 331.5722  28.5494 15.33443038 11341

JSON: /api/v1/satellites/68162 · /tle

For live sub-satellite position, see the globe view (requires WebGL).

§ Visibility from observer

Set your observer location to see the next 7 days of passes ≥ 10°. The values pass through the URL so the page stays shareable.

No JS? Fill the form by hand. The geolocation button needs JavaScript.